星链-34919(STARLINK-34919)

导读 | 豆包AI

STARLINK-34919是美国SpaceX星链星座的成员卫星,于2025年9月26日发射入轨,属于星链低轨互联网星座组网的一部分。星链星座旨在为全球提供低延迟、高速率的宽带互联网服务,该卫星延续了星链批量部署、服务全球互联网覆盖的定位,进一步完善了星链低轨卫星网络的覆盖能力与服务容量。

基本信息
目录编号:
65802
目录名称:
STARLINK-34919
国际标识:
2025-218M
轨道中心:
EARTH
卫星名称:
星链-34919
卫星全名:
星链-34919(STARLINK-34919)
卫星状态:
在轨 (已飞行169 天)
发射日期:
2025-09-26 UTC
国别 :
美国 (US)
星等 :
--
轨道信息
数据来源 国际轨道数据
星历时间: 2026-03-14T05:29:17+0800
11小时前
查看轨道信息
半长轴: 6927.594km
偏心率: 0.0001867
轨道倾角: 97.604°
近地点辐角 85.051°
升交点赤经 297.116°
平近点角 275.093°
近地点: 548.163km
远地点: 550.751km
周期: 95.639分钟
每日圈数: 15.056677
详细信息
固有亮度:
5
最大亮度:
2.5
卫星平台:
Starlink V1.0
覆盖范围:
全球
运营商:
太空探索技术公司
运营商所在国:
美国
制造商(研发单位):
太空探索技术公司
制造商所在国:
美国
使用方式:
暂无
卫星简介
Starlink 计划是 SpaceX 推出的全球卫星互联网项目,通过发射低轨道卫星,为全球尤其是偏远地区提供高速、低延迟的互联网服务。自 2019 年起,Starlink 已部署数千颗卫星,旨在缩小全球数字鸿沟,推动互联网普及。该项目还为军事、航空等行业提供通信支持,带来广泛经济效益。
2D轨道图
3D轨道图
轨道高度分析图
轨道倾角分析图
轨道综合分析图
查看轨道综合分析图